Data No, UTC Date,UTC Time,Latitude,Longitude,Course(deg),Temp(degC),Sal(psu)
1037,2021/4/22,17:16,35-35.65N,139-47.09E,200,16.315,28.6704
1038,2021/4/22,17:17,35-35.45N,139-47.10E,167,16.182,28.6897
1039,2021/4/22,17:18,35-35.27N,139-47.22E,147,16.062,28.6897
1040,2021/4/22,17:19,35-35.09N,139-47.37E,145,16.221,28.5051
1041,2021/4/22,17:20,35-34.91N,139-47.53E,141,16.255,28.5155
1042,2021/4/22,17:21,35-34.78N,139-47.74E,127,16.273,28.635
1043,2021/4/22,17:22,35-34.62N,139-47.99E,127,16.211,28.6571
1044,2021/4/22,17:23,35-34.46N,139-48.24E,127,16.215,28.7609
1045,2021/4/22,17:24,35-34.29N,139-48.51E,127,16.187,28.8848
1046,2021/4/22,17:25,35-34.11N,139-48.80E,128,16.156,29.023
1047,2021/4/22,17:26,35-33.93N,139-49.07E,127,16.138,29.1203
1048,2021/4/22,17:27,35-33.75N,139-49.37E,127,16.13,29.162
1049,2021/4/22,17:28,35-33.57N,139-49.65E,127,16.102,29.1775
1050,2021/4/22,17:29,35-33.39N,139-49.94E,126,16.196,29.1217
1051,2021/4/22,17:30,35-33.20N,139-50.24E,129,16.315,28.9834
1052,2021/4/22,17:31,35-32.97N,139-50.48E,147,16.271,29.0858
1053,2021/4/22,17:32,35-32.67N,139-50.58E,167,16.246,29.1323
1054,2021/4/22,17:33,35-32.38N,139-50.66E,169,16.291,29.161
1055,2021/4/22,17:34,35-32.08N,139-50.73E,169,16.261,29.3041
1056,2021/4/22,17:35,35-31.77N,139-50.80E,168,16.299,29.4251
1057,2021/4/22,17:36,35-31.46N,139-50.85E,173,16.341,29.6945
1058,2021/4/22,17:37,35-31.15N,139-50.89E,174,16.394,29.911
1059,2021/4/22,17:38,35-30.83N,139-50.93E,174,16.437,30.1473
1060,2021/4/22,17:39,35-30.52N,139-50.96E,174,16.425,30.4006
1061,2021/4/22,17:40,35-30.20N,139-51.01E,174,16.447,30.5364
1062,2021/4/22,17:41,35-29.88N,139-51.02E,182,16.469,30.6301
1063,2021/4/22,17:42,35-29.58N,139-50.91E,202,16.469,30.6796
1064,2021/4/22,17:43,35-29.30N,139-50.73E,207,16.448,30.7158
1065,2021/4/22,17:44,35-29.01N,139-50.55E,207,16.423,30.7589
1066,2021/4/22,17:45,35-28.72N,139-50.36E,209,16.377,30.8073
1067,2021/4/22,17:46,35-28.45N,139-50.17E,209,16.299,30.8837
1068,2021/4/22,17:47,35-28.19N,139-49.94E,222,16.174,30.9772
1069,2021/4/22,17:48,35-27.98N,139-49.64E,228,16.149,31.1215
1070,2021/4/22,17:49,35-27.76N,139-49.35E,227,16.193,31.297
1071,2021/4/22,17:50,35-27.53N,139-49.07E,224,16.233,31.417
1072,2021/4/22,17:51,35-27.33N,139-48.77E,231,16.259,31.4553
1073,2021/4/22,17:52,35-27.13N,139-48.46E,232,16.285,31.4525
1074,2021/4/22,17:53,35-26.94N,139-48.15E,232,16.266,31.4158
1075,2021/4/22,17:54,35-26.74N,139-47.83E,232,16.27,31.4226
1076,2021/4/22,17:55,35-26.56N,139-47.50E,236,16.282,31.4708
1077,2021/4/22,17:56,35-26.38N,139-47.18E,237,16.319,31.4706
1078,2021/4/22,17:57,35-26.22N,139-46.85E,238,16.376,31.4625
1079,2021/4/22,17:58,35-26.05N,139-46.51E,238,16.397,31.4279
1080,2021/4/22,17:59,35-25.89N,139-46.17E,240,16.41,31.3895
1081,2021/4/22,18:00,35-25.73N,139-45.82E,240,16.426,31.3749
1082,2021/4/22,18:01,35-25.58N,139-45.48E,241,16.423,31.3553
1083,2021/4/22,18:02,35-25.42N,139-45.14E,240,16.411,31.3243
1084,2021/4/22,18:03,35-25.26N,139-44.78E,240,16.423,31.3271
1085,2021/4/22,18:04,35-25.08N,139-44.39E,241,16.448,31.3159
1086,2021/4/22,18:05,35-24.92N,139-44.04E,239,16.485,31.2887
1087,2021/4/22,18:06,35-24.78N,139-43.75E,239,16.529,31.2381
1088,2021/4/22,18:07,35-24.62N,139-43.41E,239,16.535,31.1869
1089,2021/4/22,18:08,35-24.40N,139-43.13E,217,16.52,31.1377
1090,2021/4/22,18:09,35-24.13N,139-42.97E,205,16.515,31.0991
1091,2021/4/22,18:10,35-23.84N,139-42.80E,203,16.509,31.0898
1092,2021/4/22,18:11,35-23.55N,139-42.65E,203,16.5,31.0714
1093,2021/4/22,18:12,35-23.23N,139-42.48E,204,16.506,31.0889
1094,2021/4/22,18:13,35-22.91N,139-42.34E,194,16.504,31.1548
1095,2021/4/22,18:14,35-22.61N,139-42.37E,177,16.471,31.262
1096,2021/4/22,18:15,35-22.29N,139-42.39E,177,16.447,31.3463
1097,2021/4/22,18:16,35-21.98N,139-42.41E,176,16.485,31.4005
1098,2021/4/22,18:17,35-21.66N,139-42.44E,176,16.438,31.4534
1099,2021/4/22,18:18,35-21.33N,139-42.47E,176,16.398,31.491
1100,2021/4/22,18:19,35-21.05N,139-42.49E,176,16.417,31.5545
1101,2021/4/22,18:20,35-20.75N,139-42.51E,177,16.389,31.5903
1102,2021/4/22,18:21,35-20.47N,139-42.53E,177,16.381,31.6356
1103,2021/4/22,18:22,35-20.22N,139-42.54E,177,16.396,31.6872
1104,2021/4/22,18:23,35-19.97N,139-42.56E,177,16.392,31.7231
1105,2021/4/22,18:24,35-19.75N,139-42.60E,162,16.449,31.7552
1106,2021/4/22,18:25,35-19.57N,139-42.74E,147,16.355,31.8335
1107,2021/4/22,18:26,35-19.39N,139-42.88E,147,16.346,31.9231
1108,2021/4/22,18:27,35-19.21N,139-43.02E,147,16.284,31.9737
1109,2021/4/22,18:28,35-19.03N,139-43.17E,146,16.265,32.0426
1110,2021/4/22,18:29,35-18.85N,139-43.31E,147,16.295,32.1749
1111,2021/4/22,18:30,35-18.65N,139-43.45E,150,16.34,32.2753
1112,2021/4/22,18:31,35-18.46N,139-43.59E,148,16.55,32.342
1113,2021/4/22,18:32,35-18.30N,139-43.72E,146,16.645,32.4186
1114,2021/4/22,18:33,35-18.13N,139-43.87E,143,16.593,32.4091
1115,2021/4/22,18:34,35-17.96N,139-44.02E,144,16.338,32.438
1116,2021/4/22,18:35,35-17.78N,139-44.18E,143,16.29,32.4723
1117,2021/4/22,18:36,35-17.61N,139-44.33E,142,16.278,32.4841
1118,2021/4/22,18:37,35-17.44N,139-44.49E,143,16.284,32.4872
1119,2021/4/22,18:38,35-17.27N,139-44.65E,142,16.3,32.4396
1120,2021/4/22,18:39,35-17.10N,139-44.81E,142,16.321,32.3738
1121,2021/4/22,18:40,35-16.93N,139-44.97E,142,16.39,32.2489
1122,2021/4/22,18:41,35-16.76N,139-45.12E,144,16.399,32.2158
1123,2021/4/22,18:42,35-16.59N,139-45.28E,144,16.369,32.2295
1124,2021/4/22,18:43,35-16.41N,139-45.43E,144,16.332,32.2587
1125,2021/4/22,18:44,35-16.23N,139-45.59E,144,16.303,32.3116
1126,2021/4/22,18:45,35-16.06N,139-45.74E,144,16.27,32.3524
1127,2021/4/22,18:46,35-15.89N,139-45.89E,145,16.233,32.3973
1128,2021/4/22,18:47,35-15.71N,139-46.03E,145,16.193,32.4514
1129,2021/4/22,18:48,35-15.50N,139-46.20E,145,16.173,32.5377
1130,2021/4/22,18:49,35-15.34N,139-46.29E,163,16.178,32.628
1131,2021/4/22,18:50,35-15.12N,139-46.31E,178,16.172,32.6281
1132,2021/4/22,18:51,35-14.91N,139-46.31E,179,16.173,32.5907
1133,2021/4/22,18:52,35-14.70N,139-46.31E,179,16.188,32.6133
1134,2021/4/22,18:53,35-14.48N,139-46.32E,179,16.189,32.6625
1135,2021/4/22,18:54,35-14.25N,139-46.32E,180,16.188,32.7052
1136,2021/4/22,18:55,35-14.02N,139-46.31E,180,16.193,32.7507
1137,2021/4/22,18:56,35-13.84N,139-46.31E,180,16.226,32.7738
1138,2021/4/22,18:57,35-13.63N,139-46.31E,180,16.263,32.8021
1139,2021/4/22,18:58,35-13.38N,139-46.31E,180,16.268,32.8163
1140,2021/4/22,18:59,35-13.17N,139-46.31E,180,16.284,32.8428
1141,2021/4/22,19:00,35-12.95N,139-46.30E,180,16.341,32.8693
2,2021/4/22,19:07,35-11.14N,139-45.76E,196,16.631,33.1629
3,2021/4/22,19:08,35-10.82N,139-45.64E,197,16.69,33.2351
4,2021/4/22,19:09,35-10.52N,139-45.54E,196,16.742,33.3179
5,2021/4/22,19:10,35-10.20N,139-45.42E,197,16.779,33.3781
6,2021/4/22,19:11,35-09.89N,139-45.30E,197,16.829,33.4572
7,2021/4/22,19:12,35-09.58N,139-45.18E,197,16.844,33.558
8,2021/4/22,19:13,35-09.25N,139-45.06E,196,16.853,33.6301
9,2021/4/22,19:14,35-08.93N,139-44.94E,196,16.839,33.6711
10,2021/4/22,19:15,35-08.60N,139-44.82E,196,16.763,33.6812
11,2021/4/22,19:16,35-08.27N,139-44.70E,197,16.755,33.739
12,2021/4/22,19:17,35-07.94N,139-44.58E,197,16.968,33.8647
13,2021/4/22,19:18,35-07.61N,139-44.43E,200,17.091,33.9717
14,2021/4/22,19:19,35-07.28N,139-44.29E,200,17.107,34.0705
15,2021/4/22,19:20,35-06.96N,139-44.09E,210,17.055,34.1178
16,2021/4/22,19:21,35-06.66N,139-43.88E,210,17.015,34.1386
17,2021/4/22,19:22,35-06.36N,139-43.66E,210,16.999,34.1728
18,2021/4/22,19:23,35-06.04N,139-43.44E,209,16.951,34.1932
19,2021/4/22,19:24,35-05.74N,139-43.23E,209,16.967,34.2063
20,2021/4/22,19:25,35-05.42N,139-43.01E,209,17.017,34.2039
21,2021/4/22,19:26,35-05.11N,139-42.79E,209,17.037,34.1993
22,2021/4/22,19:27,35-04.79N,139-42.58E,207,17.08,34.1857
23,2021/4/22,19:28,35-04.46N,139-42.37E,207,17.07,34.1925
24,2021/4/22,19:29,35-04.13N,139-42.17E,206,17.029,34.1809
25,2021/4/22,19:30,35-03.78N,139-41.97E,202,17.026,34.1752
26,2021/4/22,19:31,35-03.44N,139-41.81E,201,16.973,34.1783
27,2021/4/22,19:32,35-03.08N,139-41.64E,201,16.873,34.1643
28,2021/4/22,19:33,35-02.72N,139-41.46E,201,16.859,34.1767
29,2021/4/22,19:34,35-02.37N,139-41.29E,201,16.852,34.1888
30,2021/4/22,19:35,35-02.00N,139-41.11E,201,16.884,34.2243
31,2021/4/22,19:36,35-01.65N,139-40.94E,201,16.927,34.2452
32,2021/4/22,19:37,35-01.28N,139-40.77E,200,17.016,34.2533
33,2021/4/22,19:38,35-00.91N,139-40.64E,194,17.036,34.3018
34,2021/4/22,19:39,35-00.52N,139-40.56E,187,17.088,34.3179
35,2021/4/22,19:40,35-00.10N,139-40.52E,181,17.089,34.3247
36,2021/4/22,19:41,34-59.76N,139-40.56E,172,17.093,34.3305
37,2021/4/22,19:42,34-59.38N,139-40.68E,162,17.087,34.3272
38,2021/4/22,19:43,34-59.02N,139-40.88E,152,17.073,34.3143
39,2021/4/22,19:44,34-58.69N,139-41.12E,147,17.062,34.3092
40,2021/4/22,19:45,34-58.36N,139-41.37E,148,17.052,34.294
41,2021/4/22,19:46,34-58.02N,139-41.62E,149,17.047,34.2931
42,2021/4/22,19:47,34-57.68N,139-41.86E,148,17.047,34.2899
43,2021/4/22,19:48,34-57.35N,139-42.12E,147,17.059,34.2884
44,2021/4/22,19:49,34-57.02N,139-42.37E,147,17.05,34.2755
45,2021/4/22,19:50,34-56.68N,139-42.63E,147,17.047,34.2745
46,2021/4/22,19:51,34-56.34N,139-42.89E,147,17.059,34.2722
47,2021/4/22,19:52,34-56.01N,139-43.14E,147,17.07,34.272
48,2021/4/22,19:53,34-55.67N,139-43.42E,144,17.071,34.2696
49,2021/4/22,19:54,34-55.35N,139-43.69E,144,17.065,34.2768
50,2021/4/22,19:55,34-55.03N,139-43.97E,144,17.056,34.2707
51,2021/4/22,19:56,34-54.70N,139-44.25E,144,17.047,34.2674
52,2021/4/22,19:57,34-54.38N,139-44.52E,145,17.033,34.2609
53,2021/4/22,19:58,34-54.05N,139-44.80E,145,17.023,34.2473
54,2021/4/22,19:59,34-53.73N,139-45.07E,145,17.023,34.2495
55,2021/4/22,20:00,34-53.40N,139-45.34E,145,17.026,34.2574
56,2021/4/22,20:01,34-53.02N,139-45.66E,145,17.041,34.2524
57,2021/4/22,20:02,34-52.76N,139-45.90E,141,17.05,34.2608
58,2021/4/22,20:03,34-52.48N,139-46.23E,132,17.07,34.2524
59,2021/4/22,20:04,34-52.25N,139-46.60E,126,17.101,34.2615
60,2021/4/22,20:05,34-52.02N,139-46.97E,126,17.038,34.2886
61,2021/4/22,20:06,34-51.80N,139-47.35E,124,17.015,34.3106
62,2021/4/22,20:07,34-51.59N,139-47.73E,123,16.84,34.3013
63,2021/4/22,20:08,34-51.39N,139-48.12E,121,16.773,34.2686
64,2021/4/22,20:09,34-51.21N,139-48.50E,119,16.759,34.2554
65,2021/4/22,20:10,34-51.02N,139-48.88E,120,16.775,34.2482
66,2021/4/22,20:11,34-50.87N,139-49.28E,108,16.783,34.2343
67,2021/4/22,20:12,34-50.84N,139-49.69E,90,16.799,34.2426
68,2021/4/22,20:13,34-50.85N,139-50.11E,88,16.78,34.2754
69,2021/4/22,20:14,34-50.86N,139-50.52E,89,16.786,34.2787
70,2021/4/22,20:15,34-50.86N,139-50.95E,89,16.788,34.2871
71,2021/4/22,20:16,34-50.86N,139-51.38E,89,16.822,34.2853
72,2021/4/22,20:17,34-50.85N,139-51.80E,90,16.822,34.2923
73,2021/4/22,20:18,34-50.85N,139-52.30E,90,16.802,34.2695
74,2021/4/22,20:19,34-50.85N,139-52.71E,89,16.785,34.2672
75,2021/4/22,20:20,34-50.85N,139-53.09E,89,16.831,34.2661
76,2021/4/22,20:21,34-50.85N,139-53.53E,89,16.85,34.2454
77,2021/4/22,20:22,34-50.85N,139-53.95E,90,16.858,34.2371
78,2021/4/22,20:23,34-50.85N,139-54.38E,89,16.869,34.2414
79,2021/4/22,20:24,34-50.84N,139-54.79E,90,16.882,34.2436
80,2021/4/22,20:25,34-50.85N,139-55.20E,87,16.878,34.239
81,2021/4/22,20:26,34-50.91N,139-55.62E,77,17.101,34.2455
82,2021/4/22,20:27,34-51.02N,139-56.00E,67,17.369,34.2498
83,2021/4/22,20:28,34-51.17N,139-56.37E,63,17.412,34.2944
84,2021/4/22,20:29,34-51.31N,139-56.72E,64,17.504,34.3173
85,2021/4/22,20:30,34-51.45N,139-57.07E,63,17.675,34.3276
86,2021/4/22,20:31,34-51.59N,139-57.43E,63,17.759,34.3484
87,2021/4/22,20:32,34-51.75N,139-57.83E,64,17.824,34.3611
88,2021/4/22,20:33,34-51.91N,139-58.22E,63,17.851,34.3736
89,2021/4/22,20:34,34-52.06N,139-58.59E,63,17.983,34.3789
90,2021/4/22,20:35,34-52.18N,139-58.91E,63,18.009,34.3778
91,2021/4/22,20:36,34-52.33N,139-59.29E,64,17.974,34.3839
92,2021/4/22,20:37,34-52.48N,139-59.65E,64,17.964,34.3891
93,2021/4/22,20:38,34-52.63N,140-00.03E,64,18.029,34.3898
94,2021/4/22,20:39,34-52.78N,140-00.39E,63,18.063,34.3967
95,2021/4/22,20:40,34-52.93N,140-00.77E,64,18.108,34.4
96,2021/4/22,20:41,34-53.08N,140-01.15E,64,18.05,34.3975
97,2021/4/22,20:42,34-53.23N,140-01.53E,63,17.979,34.3937
98,2021/4/22,20:43,34-53.38N,140-01.89E,64,17.742,34.3952
99,2021/4/22,20:44,34-53.51N,140-02.24E,64,17.77,34.387
100,2021/4/22,20:45,34-53.65N,140-02.60E,63,17.464,34.3784
101,2021/4/22,20:46,34-53.80N,140-02.96E,63,17.736,34.3367
102,2021/4/22,20:47,34-53.93N,140-03.30E,64,17.897,34.348
103,2021/4/22,20:48,34-54.07N,140-03.64E,63,17.848,34.3701
104,2021/4/22,20:49,34-54.21N,140-03.99E,64,17.816,34.3829
105,2021/4/22,20:50,34-54.35N,140-04.33E,63,17.877,34.3826
106,2021/4/22,20:51,34-54.49N,140-04.69E,64,17.911,34.373
107,2021/4/22,20:52,34-54.63N,140-05.04E,63,17.852,34.3827
108,2021/4/22,20:53,34-54.77N,140-05.40E,64,17.819,34.3819
109,2021/4/22,20:54,34-54.92N,140-05.77E,63,17.806,34.3681
110,2021/4/22,20:55,34-55.07N,140-06.14E,64,17.692,34.3666
111,2021/4/22,20:56,34-55.22N,140-06.49E,60,17.388,34.3601
112,2021/4/22,20:57,34-55.39N,140-06.82E,56,17.367,34.3326
113,2021/4/22,20:58,34-55.56N,140-07.14E,56,17.202,34.3008
114,2021/4/22,20:59,34-55.73N,140-07.47E,58,17.151,34.2883
115,2021/4/22,21:00,34-55.90N,140-07.79E,56,17.196,34.265
116,2021/4/22,21:01,34-56.10N,140-08.15E,57,17.243,34.2688
117,2021/4/22,21:02,34-56.25N,140-08.44E,55,17.226,34.2796
118,2021/4/22,21:03,34-56.39N,140-08.71E,55,17.212,34.2845
119,2021/4/22,21:04,34-56.53N,140-08.98E,57,17.168,34.2876
120,2021/4/22,21:05,34-56.67N,140-09.27E,58,17.175,34.2882
121,2021/4/22,21:06,34-56.82N,140-09.54E,55,17.18,34.2863
122,2021/4/22,21:07,34-56.96N,140-09.79E,54,17.172,34.2877
123,2021/4/22,21:08,34-57.08N,140-10.02E,55,17.198,34.2847
124,2021/4/22,21:09,34-57.22N,140-10.27E,55,17.227,34.2977
125,2021/4/22,21:10,34-57.34N,140-10.51E,57,17.208,34.3058
126,2021/4/22,21:11,34-57.49N,140-10.80E,54,17.228,34.3091
127,2021/4/22,21:12,34-57.64N,140-11.05E,55,17.292,34.3076
128,2021/4/22,21:13,34-57.81N,140-11.35E,55,17.325,34.308
129,2021/4/22,21:14,34-57.94N,140-11.59E,54,17.374,34.3077
130,2021/4/22,21:15,34-58.09N,140-11.86E,54,17.458,34.3089
131,2021/4/22,21:16,34-58.25N,140-12.12E,53,17.547,34.3245
132,2021/4/22,21:17,34-58.38N,140-12.33E,54,17.618,34.3382
133,2021/4/22,21:18,34-58.52N,140-12.57E,53,17.849,34.3395
134,2021/4/22,21:19,34-58.67N,140-12.84E,55,17.889,34.3595
135,2021/4/22,21:20,34-58.83N,140-13.10E,53,18.004,34.3784
136,2021/4/22,21:21,34-58.97N,140-13.37E,55,18.072,34.3731
137,2021/4/22,21:22,34-59.09N,140-13.60E,56,18.054,34.3889
138,2021/4/22,21:23,34-59.24N,140-13.88E,55,18.089,34.3903
139,2021/4/22,21:24,34-59.39N,140-14.16E,58,18.16,34.3932
140,2021/4/22,21:25,34-59.53N,140-14.43E,57,18.194,34.3987
141,2021/4/22,21:26,34-59.68N,140-14.72E,57,18.213,34.3991
142,2021/4/22,21:27,34-59.83N,140-15.01E,57,18.195,34.3946
143,2021/4/22,21:28,34-59.98N,140-15.30E,57,18.14,34.3928
144,2021/4/22,21:29,35-00.14N,140-15.60E,57,18.079,34.3991
145,2021/4/22,21:30,35-00.29N,140-15.89E,57,18.054,34.3973
146,2021/4/22,21:31,35-00.44N,140-16.18E,58,18.07,34.3944
147,2021/4/22,21:32,35-00.59N,140-16.48E,58,18.057,34.3978
148,2021/4/22,21:33,35-00.74N,140-16.78E,58,18.094,34.4012
149,2021/4/22,21:34,35-00.91N,140-17.10E,58,18.086,34.3918
150,2021/4/22,21:35,35-01.06N,140-17.41E,59,18.044,34.3913
151,2021/4/22,21:36,35-01.21N,140-17.74E,61,18.087,34.3931
152,2021/4/22,21:37,35-01.36N,140-18.06E,59,18.01,34.4049
153,2021/4/22,21:38,35-01.52N,140-18.38E,59,17.972,34.4046
154,2021/4/22,21:39,35-01.68N,140-18.71E,58,18.198,34.4023
155,2021/4/22,21:40,35-01.82N,140-19.02E,60,18.295,34.4114
156,2021/4/22,21:41,35-01.98N,140-19.34E,59,18.34,34.4142
157,2021/4/22,21:42,35-02.12N,140-19.62E,58,18.362,34.4128
158,2021/4/22,21:43,35-02.26N,140-19.92E,59,18.392,34.4154
159,2021/4/22,21:44,35-02.41N,140-20.22E,58,18.408,34.4232
160,2021/4/22,21:45,35-02.54N,140-20.48E,58,18.404,34.418
161,2021/4/22,21:46,35-02.68N,140-20.77E,59,18.384,34.4198
162,2021/4/22,21:47,35-02.82N,140-21.06E,59,18.359,34.4191
163,2021/4/22,21:48,35-02.99N,140-21.40E,57,18.337,34.4109
164,2021/4/22,21:49,35-03.14N,140-21.71E,59,18.406,34.412
165,2021/4/22,21:50,35-03.27N,140-21.96E,58,18.478,34.4189
166,2021/4/22,21:51,35-03.42N,140-22.27E,60,18.502,34.4235
167,2021/4/22,21:52,35-03.57N,140-22.59E,59,18.529,34.4235
168,2021/4/22,21:53,35-03.74N,140-22.90E,58,18.561,34.4231
169,2021/4/22,21:54,35-03.89N,140-23.22E,59,18.579,34.42
170,2021/4/22,21:55,35-04.01N,140-23.52E,60,18.584,34.422
171,2021/4/22,21:56,35-04.18N,140-23.83E,57,18.595,34.4214
172,2021/4/22,21:57,35-04.32N,140-24.11E,58,18.589,34.4254
173,2021/4/22,21:58,35-04.46N,140-24.40E,58,18.577,34.4245
174,2021/4/22,21:59,35-04.61N,140-24.70E,57,18.574,34.422
175,2021/4/22,22:00,35-04.76N,140-24.99E,58,18.521,34.4153
176,2021/4/22,22:01,35-04.93N,140-25.33E,58,18.412,34.4171
177,2021/4/22,22:02,35-05.08N,140-25.62E,58,18.356,34.4171
178,2021/4/22,22:03,35-05.23N,140-25.93E,58,18.335,34.4219
179,2021/4/22,22:04,35-05.37N,140-26.22E,59,18.308,34.4124
180,2021/4/22,22:05,35-05.52N,140-26.53E,59,18.294,34.4141
181,2021/4/22,22:06,35-05.66N,140-26.79E,58,18.284,34.4154
182,2021/4/22,22:07,35-05.80N,140-27.07E,58,18.276,34.4231
183,2021/4/22,22:08,35-05.95N,140-27.37E,59,18.24,34.4175
184,2021/4/22,22:09,35-06.11N,140-27.70E,59,18.242,34.4137
185,2021/4/22,22:10,35-06.22N,140-27.94E,58,18.27,34.4138
186,2021/4/22,22:11,35-06.34N,140-28.18E,60,18.286,34.4223
187,2021/4/22,22:12,35-06.44N,140-28.42E,63,18.316,34.4277
188,2021/4/22,22:13,35-06.53N,140-28.63E,62,18.347,34.4284
189,2021/4/22,22:14,35-06.66N,140-28.92E,62,18.362,34.4214
190,2021/4/22,22:15,35-06.77N,140-29.18E,61,18.362,34.4202
191,2021/4/22,22:16,35-06.88N,140-29.41E,62,18.346,34.4159
192,2021/4/22,22:17,35-07.00N,140-29.71E,63,18.276,34.4248
193,2021/4/22,22:18,35-07.10N,140-29.94E,63,18.239,34.4271
194,2021/4/22,22:19,35-07.21N,140-30.20E,62,18.198,34.4181
195,2021/4/22,22:20,35-07.33N,140-30.48E,63,18.354,34.4221
196,2021/4/22,22:21,35-07.43N,140-30.73E,63,18.484,34.428
197,2021/4/22,22:22,35-07.52N,140-30.95E,64,18.552,34.4307
198,2021/4/22,22:23,35-07.61N,140-31.17E,64,18.599,34.4355
199,2021/4/22,22:24,35-07.71N,140-31.42E,63,18.623,34.4373
200,2021/4/22,22:25,35-07.81N,140-31.66E,63,18.656,34.4315
201,2021/4/22,22:26,35-07.91N,140-31.89E,62,18.69,34.4359
202,2021/4/22,22:27,35-08.00N,140-32.12E,64,18.707,34.4419
203,2021/4/22,22:28,35-08.10N,140-32.35E,63,18.709,34.4372
204,2021/4/22,22:29,35-08.21N,140-32.59E,59,18.714,34.4373
205,2021/4/22,22:30,35-08.31N,140-32.79E,58,18.718,34.441
206,2021/4/22,22:31,35-08.43N,140-33.01E,57,18.736,34.4339
207,2021/4/22,22:32,35-08.56N,140-33.26E,56,18.733,34.4386
208,2021/4/22,22:33,35-08.68N,140-33.43E,53,18.724,34.4394
209,2021/4/22,22:34,35-08.81N,140-33.63E,53,18.692,34.4444
210,2021/4/22,22:35,35-08.95N,140-33.82E,49,18.703,34.4393
211,2021/4/22,22:36,35-09.06N,140-34.01E,49,18.739,34.436
212,2021/4/22,22:37,35-09.20N,140-34.20E,44,18.782,34.4301
213,2021/4/22,22:38,35-09.37N,140-34.38E,38,18.808,34.434
214,2021/4/22,22:39,35-09.55N,140-34.55E,38,18.82,34.436
215,2021/4/22,22:40,35-09.73N,140-34.73E,38,18.826,34.4401
216,2021/4/22,22:41,35-09.92N,140-34.90E,36,18.826,34.4416
217,2021/4/22,22:42,35-10.11N,140-35.07E,35,18.807,34.4325
218,2021/4/22,22:43,35-10.28N,140-35.21E,34,18.814,34.4326
219,2021/4/22,22:44,35-10.46N,140-35.36E,34,18.826,34.4409
220,2021/4/22,22:45,35-10.66N,140-35.53E,34,18.843,34.4366
221,2021/4/22,22:46,35-10.85N,140-35.68E,34,18.868,34.4391
222,2021/4/22,22:47,35-11.03N,140-35.83E,33,18.884,34.4329
223,2021/4/22,22:48,35-11.22N,140-35.99E,35,18.908,34.4399
224,2021/4/22,22:49,35-11.41N,140-36.15E,33,18.909,34.4427
225,2021/4/22,22:50,35-11.59N,140-36.29E,34,18.887,34.4425
226,2021/4/22,22:51,35-11.76N,140-36.43E,34,18.846,34.438
227,2021/4/22,22:52,35-11.94N,140-36.58E,33,18.817,34.4331
228,2021/4/22,22:53,35-12.13N,140-36.73E,32,18.802,34.4286
229,2021/4/22,22:54,35-12.33N,140-36.89E,34,18.793,34.4333
230,2021/4/22,22:55,35-12.51N,140-37.04E,34,18.777,34.4401
231,2021/4/22,22:56,35-12.70N,140-37.19E,34,18.752,34.4402
232,2021/4/22,22:57,35-12.89N,140-37.34E,32,18.694,34.4353
233,2021/4/22,22:58,35-13.09N,140-37.50E,33,18.617,34.4353
234,2021/4/22,22:59,35-13.29N,140-37.65E,32,18.575,34.4304
235,2021/4/22,23:00,35-13.49N,140-37.79E,31,18.528,34.4343
236,2021/4/22,23:01,35-13.66N,140-37.93E,33,18.306,34.439
237,2021/4/22,23:02,35-13.84N,140-38.08E,32,18.162,34.4235
238,2021/4/22,23:03,35-14.02N,140-38.21E,32,18.183,34.4239
239,2021/4/22,23:04,35-14.21N,140-38.37E,34,18.018,34.434
240,2021/4/22,23:05,35-14.40N,140-38.53E,32,17.864,34.4246
241,2021/4/22,23:06,35-14.60N,140-38.69E,33,17.857,34.4184
242,2021/4/22,23:07,35-14.80N,140-38.85E,34,17.852,34.4225
243,2021/4/22,23:08,35-15.00N,140-39.01E,32,17.902,34.4123
244,2021/4/22,23:09,35-15.22N,140-39.18E,32,17.931,34.4151
245,2021/4/22,23:10,35-15.43N,140-39.34E,32,17.945,34.4195
246,2021/4/22,23:11,35-15.65N,140-39.51E,32,17.9,34.4169
247,2021/4/22,23:12,35-15.88N,140-39.67E,31,17.802,34.4232
248,2021/4/22,23:13,35-16.09N,140-39.83E,31,17.596,34.4122
249,2021/4/22,23:14,35-16.28N,140-39.97E,30,17.511,34.4029
250,2021/4/22,23:15,35-16.48N,140-40.13E,30,17.484,34.4014
251,2021/4/22,23:16,35-16.70N,140-40.29E,29,17.466,34.4144
252,2021/4/22,23:17,35-16.93N,140-40.45E,30,17.437,34.4177
253,2021/4/22,23:18,35-17.15N,140-40.62E,32,17.472,34.4162
254,2021/4/22,23:19,35-17.37N,140-40.78E,29,17.502,34.4112
255,2021/4/22,23:20,35-17.59N,140-40.94E,28,17.46,34.4109
256,2021/4/22,23:21,35-17.81N,140-41.08E,28,17.421,34.4049
257,2021/4/22,23:22,35-18.03N,140-41.24E,32,17.409,34.4106
258,2021/4/22,23:23,35-18.26N,140-41.40E,33,17.392,34.4097
259,2021/4/22,23:24,35-18.46N,140-41.57E,32,17.381,34.3997
260,2021/4/22,23:25,35-18.69N,140-41.75E,31,17.379,34.4029
261,2021/4/22,23:26,35-18.92N,140-41.91E,30,17.385,34.399
262,2021/4/22,23:27,35-19.14N,140-42.07E,31,17.378,34.3999
263,2021/4/22,23:28,35-19.37N,140-42.24E,31,17.374,34.4024
264,2021/4/22,23:29,35-19.59N,140-42.41E,32,17.359,34.4115
265,2021/4/22,23:30,35-19.81N,140-42.57E,30,17.334,34.3999
266,2021/4/22,23:31,35-20.03N,140-42.73E,32,17.279,34.4012
267,2021/4/22,23:32,35-20.25N,140-42.90E,32,17.22,34.4003
268,2021/4/22,23:33,35-20.45N,140-43.05E,32,17.105,34.3927
269,2021/4/22,23:34,35-20.66N,140-43.21E,31,16.989,34.3947
270,2021/4/22,23:35,35-20.86N,140-43.36E,33,16.755,34.386
271,2021/4/22,23:36,35-21.08N,140-43.53E,30,16.475,34.3802
272,2021/4/22,23:37,35-21.32N,140-43.71E,32,16.242,34.3598
273,2021/4/22,23:38,35-21.55N,140-43.88E,29,16.106,34.3613
274,2021/4/22,23:39,35-21.78N,140-44.04E,31,16.165,34.362
275,2021/4/22,23:40,35-22.01N,140-44.21E,32,16.236,34.3553
276,2021/4/22,23:41,35-22.23N,140-44.38E,32,16.24,34.3602
277,2021/4/22,23:42,35-22.46N,140-44.54E,30,16.208,34.3678
278,2021/4/22,23:43,35-22.68N,140-44.70E,32,16.15,34.3625
279,2021/4/22,23:44,35-22.93N,140-44.90E,31,16.104,34.3689
280,2021/4/22,23:45,35-23.16N,140-45.07E,31,15.999,34.3721
281,2021/4/22,23:46,35-23.40N,140-45.24E,31,15.665,34.3662
282,2021/4/22,23:47,35-23.65N,140-45.42E,30,15.448,34.3644
283,2021/4/22,23:48,35-23.90N,140-45.60E,29,15.489,34.3428
284,2021/4/22,23:49,35-24.15N,140-45.77E,30,15.566,34.3528
285,2021/4/22,23:50,35-24.39N,140-45.95E,30,15.434,34.3384
286,2021/4/22,23:51,35-24.62N,140-46.11E,30,15.442,34.3344
287,2021/4/22,23:52,35-24.87N,140-46.30E,30,15.499,34.338
288,2021/4/22,23:53,35-25.14N,140-46.49E,30,15.554,34.3348
289,2021/4/22,23:54,35-25.45N,140-46.71E,30,15.62,34.345
290,2021/4/22,23:55,35-25.73N,140-46.91E,30,15.649,34.3428
291,2021/4/22,23:56,35-26.02N,140-47.11E,30,15.697,34.3521
292,2021/4/22,23:57,35-26.31N,140-47.32E,29,15.746,34.3466
293,2021/4/22,23:58,35-26.59N,140-47.52E,30,15.754,34.3533